Time,TemperatureF,DewpointF,PressureIn,WindDirection,WindDirectionDegrees,WindSpeedMPH,WindSpeedGustMPH,Humidity,HourlyPrecipIn,Conditions,Clouds,dailyrainin,SolarRadiationWatts/m^2,SoftwareType,DateUTC
2013-02-08 00:02:00,54.9,30.4,30.32,WNW,297,14.0,0.0,39,0.00,,,0.00,0,WeatherHawk,2013-02-08 06:02:00,
2013-02-08 00:07:00,54.8,29.7,30.32,NNE,28,10.0,0.0,38,0.00,,,0.00,1,WeatherHawk,2013-02-08 06:07:00,
2013-02-08 00:12:00,54.6,30.1,30.33,NNE,33,7.0,0.0,39,0.00,,,0.00,1,WeatherHawk,2013-02-08 06:12:00,
2013-02-08 00:17:00,54.2,29.8,30.32,WSW,254,10.0,0.0,39,0.00,,,0.00,0,WeatherHawk,2013-02-08 06:17:00,
2013-02-08 00:22:00,54.0,29.6,30.33,NW,320,9.0,0.0,39,0.00,,,0.00,1,WeatherHawk,2013-02-08 06:22:00,
2013-02-08 00:27:00,53.9,29.6,30.34,NE,39,13.0,0.0,39,0.00,,,0.00,0,WeatherHawk,2013-02-08 06:27:00,
2013-02-08 00:32:00,53.9,30.2,30.33,NNW,335,17.0,0.0,40,0.00,,,0.00,0,WeatherHawk,2013-02-08 06:32:00,
2013-02-08 00:37:00,53.8,30.6,30.33,NW,314,13.0,0.0,41,0.00,,,0.00,0,WeatherHawk,2013-02-08 06:37:00,
2013-02-08 00:42:00,53.4,30.9,30.34,NW,307,12.0,0.0,42,0.00,,,0.00,0,WeatherHawk,2013-02-08 06:42:00,
2013-02-08 00:47:00,52.9,31.0,30.34,NW,313,8.0,0.0,43,0.00,,,0.00,1,WeatherHawk,2013-02-08 06:47:00,
2013-02-08 00:53:00,53.0,31.2,30.35,NNW,346,7.0,0.0,43,0.00,,,0.00,0,WeatherHawk,2013-02-08 06:53:00,
2013-02-08 00:58:00,52.9,31.6,30.35,NNE,18,13.0,0.0,44,0.00,,,0.00,1,WeatherHawk,2013-02-08 06:58:00,
2013-02-08 01:03:00,53.0,31.7,30.36,NW,320,12.0,0.0,44,0.00,,,0.00,0,WeatherHawk,2013-02-08 07:03:00,
2013-02-08 01:08:00,52.4,31.7,30.35,NW,313,10.0,0.0,45,0.00,,,0.00,1,WeatherHawk,2013-02-08 07:08:00,
2013-02-08 01:13:00,52.5,32.4,30.34,WNW,303,15.0,0.0,46,0.00,,,0.00,1,WeatherHawk,2013-02-08 07:13:00,
2013-02-08 01:18:00,52.4,32.7,30.35,NW,312,11.0,0.0,47,0.00,,,0.00,0,WeatherHawk,2013-02-08 07:18:00,
2013-02-08 01:23:00,52.1,32.5,30.36,NNW,328,10.0,0.0,47,0.00,,,0.00,0,WeatherHawk,2013-02-08 07:23:00,
2013-02-08 01:28:00,51.9,32.3,30.36,NW,323,10.0,0.0,47,0.00,,,0.00,2,WeatherHawk,2013-02-08 07:28:00,
2013-02-08 01:34:00,52.0,32.4,30.35,NNW,340,13.0,0.0,47,0.00,,,0.00,1,WeatherHawk,2013-02-08 07:34:00,
2013-02-08 01:39:00,51.6,32.0,30.36,NW,322,9.0,0.0,47,0.00,,,0.00,0,WeatherHawk,2013-02-08 07:39:00,
2013-02-08 01:44:00,51.5,32.5,30.37,WNW,290,10.0,0.0,48,0.00,,,0.00,0,WeatherHawk,2013-02-08 07:44:00,
2013-02-08 01:49:00,51.1,32.1,30.37,NW,307,6.0,0.0,48,0.00,,,0.00,0,WeatherHawk,2013-02-08 07:49:00,
2013-02-08 01:54:00,51.2,32.2,30.37,NW,319,7.0,0.0,48,0.00,,,0.00,2,WeatherHawk,2013-02-08 07:54:00,
2013-02-08 01:59:00,51.0,32.0,30.37,NNW,333,6.0,0.0,48,0.00,,,0.00,0,WeatherHawk,2013-02-08 07:59:00,
2013-02-08 02:04:00,51.3,32.3,30.37,NW,318,13.0,0.0,48,0.00,,,0.00,0,WeatherHawk,2013-02-08 08:04:00,
2013-02-08 02:10:00,50.9,31.9,30.36,NW,309,6.0,0.0,48,0.00,,,0.00,0,WeatherHawk,2013-02-08 08:10:00,
2013-02-08 02:15:00,51.1,32.1,30.37,NNW,329,6.0,0.0,48,0.00,,,0.00,1,WeatherHawk,2013-02-08 08:15:00,
2013-02-08 02:20:00,50.3,31.4,30.36,NW,320,6.0,-999.0,48,0.00,,,0.00,0,WeatherHawk,2013-02-08 08:20:00,
2013-02-08 02:25:00,50.6,31.1,30.37,NNW,335,10.0,0.0,47,0.00,,,0.00,1,WeatherHawk,2013-02-08 08:25:00,
2013-02-08 02:30:00,50.8,31.3,30.37,NW,315,10.0,0.0,47,0.00,,,0.00,0,WeatherHawk,2013-02-08 08:30:00,
2013-02-08 02:35:00,50.5,31.1,30.37,NW,322,12.0,-999.0,47,0.00,,,0.00,1,WeatherHawk,2013-02-08 08:35:00,
2013-02-08 02:40:00,50.5,31.1,30.36,NNW,337,10.0,-999.0,47,0.00,,,0.00,0,WeatherHawk,2013-02-08 08:40:00,
2013-02-08 02:45:00,50.3,31.4,30.37,NW,326,8.0,0.0,48,0.00,,,0.00,1,WeatherHawk,2013-02-08 08:45:00,
2013-02-08 02:50:00,50.1,30.6,30.37,NW,320,4.0,0.0,47,0.00,,,0.00,0,WeatherHawk,2013-02-08 08:50:00,
2013-02-08 02:55:00,50.0,30.6,30.37,NNW,329,8.0,0.0,47,0.00,,,0.00,0,WeatherHawk,2013-02-08 08:55:00,
2013-02-08 03:00:00,50.2,30.8,30.37,NW,326,7.0,0.0,47,0.00,,,0.00,0,WeatherHawk,2013-02-08 09:00:00,
2013-02-08 03:05:00,49.8,29.9,30.37,NNE,14,10.0,-999.0,46,0.00,,,0.00,0,WeatherHawk,2013-02-08 09:05:00,
2013-02-08 03:10:00,49.9,29.4,30.38,NW,320,7.0,-999.0,45,0.00,,,0.00,0,WeatherHawk,2013-02-08 09:10:00,
2013-02-08 03:15:00,50.2,29.2,30.38,NNW,344,14.0,0.0,44,0.00,,,0.00,0,WeatherHawk,2013-02-08 09:15:00,
2013-02-08 03:20:00,50.0,28.9,30.37,NW,326,9.0,-999.0,44,0.00,,,0.00,1,WeatherHawk,2013-02-08 09:20:00,
2013-02-08 03:25:00,50.0,29.0,30.37,NNW,338,11.0,0.0,44,0.00,,,0.00,0,WeatherHawk,2013-02-08 09:25:00,
2013-02-08 03:30:00,49.5,28.0,30.38,North,10,10.0,0.0,43,0.00,,,0.00,0,WeatherHawk,2013-02-08 09:30:00,
2013-02-08 03:35:00,49.6,27.4,30.39,WNW,295,10.0,-999.0,42,0.00,,,0.00,0,WeatherHawk,2013-02-08 09:35:00,
2013-02-08 03:40:00,49.7,27.5,30.39,North,5,8.0,0.0,42,0.00,,,0.00,1,WeatherHawk,2013-02-08 09:40:00,
2013-02-08 03:45:00,49.1,27.6,30.39,West,280,8.0,-999.0,43,0.00,,,0.00,0,WeatherHawk,2013-02-08 09:45:00,
2013-02-08 03:50:00,49.4,27.3,30.39,North,7,10.0,-999.0,42,0.00,,,0.00,0,WeatherHawk,2013-02-08 09:50:00,
2013-02-08 03:55:00,49.4,27.3,30.38,NNE,27,8.0,0.0,42,0.00,,,0.00,0,WeatherHawk,2013-02-08 09:55:00,
2013-02-08 04:00:00,49.3,26.6,30.39,NW,310,15.0,-999.0,41,0.00,,,0.00,0,WeatherHawk,2013-02-08 10:00:00,
2013-02-08 04:05:00,49.2,27.1,30.40,NNW,338,9.0,0.0,42,0.00,,,0.00,0,WeatherHawk,2013-02-08 10:05:00,
2013-02-08 04:10:00,48.7,26.6,30.39,NNW,338,8.0,0.0,42,0.00,,,0.00,0,WeatherHawk,2013-02-08 10:10:00,
2013-02-08 04:15:00,48.6,26.6,30.40,NW,319,5.0,0.0,42,0.00,,,0.00,0,WeatherHawk,2013-02-08 10:15:00,
2013-02-08 04:20:00,48.6,26.6,30.40,NNE,30,9.0,0.0,42,0.00,,,0.00,0,WeatherHawk,2013-02-08 10:20:00,
2013-02-08 04:25:00,48.6,26.6,30.40,NNE,25,11.0,0.0,42,0.00,,,0.00,0,WeatherHawk,2013-02-08 10:25:00,
2013-02-08 04:30:00,48.3,26.8,30.40,NW,324,3.0,0.0,43,0.00,,,0.00,0,WeatherHawk,2013-02-08 10:30:00,
2013-02-08 04:35:00,48.0,26.5,30.40,NNE,22,8.0,0.0,43,0.00,,,0.00,0,WeatherHawk,2013-02-08 10:35:00,
2013-02-08 04:40:00,48.3,26.9,30.40,NW,325,6.0,0.0,43,0.00,,,0.00,0,WeatherHawk,2013-02-08 10:40:00,
2013-02-08 04:45:00,47.6,26.2,30.40,NNE,26,8.0,-999.0,43,0.00,,,0.00,1,WeatherHawk,2013-02-08 10:45:00,
2013-02-08 04:50:00,47.9,26.5,30.40,West,281,7.0,0.0,43,0.00,,,0.00,0,WeatherHawk,2013-02-08 10:50:00,
2013-02-08 04:55:00,47.5,26.7,30.40,NNE,17,7.0,-999.0,44,0.00,,,0.00,0,WeatherHawk,2013-02-08 10:55:00,
2013-02-08 05:00:00,47.7,26.8,30.42,NE,37,3.0,0.0,44,0.00,,,0.00,0,WeatherHawk,2013-02-08 11:00:00,
2013-02-08 05:05:00,47.5,26.7,30.41,NNW,334,12.0,0.0,44,0.00,,,0.00,0,WeatherHawk,2013-02-08 11:05:00,
2013-02-08 05:10:00,47.4,26.6,30.42,North,0,5.0,0.0,44,0.00,,,0.00,1,WeatherHawk,2013-02-08 11:10:00,
2013-02-08 05:15:00,47.3,26.5,30.42,NW,319,7.0,0.0,44,0.00,,,0.00,0,WeatherHawk,2013-02-08 11:15:00,
2013-02-08 05:20:00,47.2,26.9,30.42,WSW,250,3.0,0.0,45,0.00,,,0.00,0,WeatherHawk,2013-02-08 11:20:00,
2013-02-08 05:25:00,46.9,26.2,30.42,NNE,25,7.0,0.0,44,0.00,,,0.00,1,WeatherHawk,2013-02-08 11:25:00,
2013-02-08 05:30:00,46.9,26.7,30.42,NNW,333,6.0,-999.0,45,0.00,,,0.00,1,WeatherHawk,2013-02-08 11:30:00,
2013-02-08 05:35:00,46.8,26.6,30.43,NNE,18,5.0,0.0,45,0.00,,,0.00,0,WeatherHawk,2013-02-08 11:35:00,
2013-02-08 05:40:00,46.8,26.6,30.44,NW,305,10.0,-999.0,45,0.00,,,0.00,0,WeatherHawk,2013-02-08 11:40:00,
2013-02-08 05:45:00,46.3,26.7,30.44,NW,309,5.0,0.0,46,0.00,,,0.00,0,WeatherHawk,2013-02-08 11:45:00,
2013-02-08 05:50:00,45.9,26.3,30.44,North,8,5.0,0.0,46,0.00,,,0.00,0,WeatherHawk,2013-02-08 11:50:00,
2013-02-08 05:55:00,46.2,26.6,30.45,NNW,345,7.0,-999.0,46,0.00,,,0.00,0,WeatherHawk,2013-02-08 11:55:00,
2013-02-08 06:00:00,46.3,26.7,30.44,NW,324,9.0,0.0,46,0.00,,,0.00,1,WeatherHawk,2013-02-08 12:00:00,
2013-02-08 06:05:00,45.9,26.8,30.44,North,3,4.0,0.0,47,0.00,,,0.00,0,WeatherHawk,2013-02-08 12:05:00,
2013-02-08 06:10:00,45.8,26.7,30.45,NW,305,3.0,0.0,47,0.00,,,0.00,0,WeatherHawk,2013-02-08 12:10:00,
2013-02-08 06:15:00,45.8,27.2,30.45,NW,320,5.0,-999.0,48,0.00,,,0.00,0,WeatherHawk,2013-02-08 12:15:00,
2013-02-08 06:20:00,46.2,26.5,30.45,NW,322,6.0,0.0,46,0.00,,,0.00,0,WeatherHawk,2013-02-08 12:20:00,
2013-02-08 06:25:00,45.6,26.0,30.44,NNW,346,6.0,0.0,46,0.00,,,0.00,1,WeatherHawk,2013-02-08 12:25:00,
2013-02-08 06:30:00,45.7,26.7,30.46,NW,310,7.0,-999.0,47,0.00,,,0.00,0,WeatherHawk,2013-02-08 12:30:00,
2013-02-08 06:35:00,45.3,26.3,30.45,NNW,345,2.0,-999.0,47,0.00,,,0.00,1,WeatherHawk,2013-02-08 12:35:00,
2013-02-08 06:40:00,45.5,26.4,30.45,NW,324,5.0,-999.0,47,0.00,,,0.00,1,WeatherHawk,2013-02-08 12:40:00,
2013-02-08 06:45:00,45.6,27.1,30.46,NNW,342,7.0,0.0,48,0.00,,,0.00,0,WeatherHawk,2013-02-08 12:45:00,
2013-02-08 06:50:00,45.2,26.7,30.46,NE,45,5.0,0.0,48,0.00,,,0.00,0,WeatherHawk,2013-02-08 12:50:00,
2013-02-08 06:55:00,44.8,26.3,30.46,WNW,291,6.0,0.0,48,0.00,,,0.00,1,WeatherHawk,2013-02-08 12:55:00,
2013-02-08 07:00:00,44.8,26.3,30.48,NNW,337,6.0,0.0,48,0.00,,,0.00,1,WeatherHawk,2013-02-08 13:00:00,
2013-02-08 07:06:00,44.9,26.9,30.46,NW,324,10.0,0.0,49,0.00,,,0.00,2,WeatherHawk,2013-02-08 13:06:00,
2013-02-08 07:12:00,44.9,27.4,30.48,NW,325,6.0,0.0,50,0.00,,,0.00,4,WeatherHawk,2013-02-08 13:12:00,
2013-02-08 07:18:00,44.5,27.1,30.49,NW,322,6.0,0.0,50,0.00,,,0.00,7,WeatherHawk,2013-02-08 13:18:00,
2013-02-08 07:23:00,44.6,27.1,30.48,NNW,328,3.0,0.0,50,0.00,,,0.00,13,WeatherHawk,2013-02-08 13:23:00,
2013-02-08 07:28:00,44.5,26.6,30.49,NNW,337,7.0,0.0,49,0.00,,,0.00,29,WeatherHawk,2013-02-08 13:28:00,
2013-02-08 07:33:00,44.9,25.9,30.49,WNW,303,5.0,0.0,47,0.00,,,0.00,39,WeatherHawk,2013-02-08 13:33:00,
2013-02-08 07:39:00,44.9,25.9,30.49,NNW,341,7.0,0.0,47,0.00,,,0.00,52,WeatherHawk,2013-02-08 13:39:00,
2013-02-08 07:44:00,44.8,25.3,30.49,NNW,335,4.0,0.0,46,0.00,,,0.00,63,WeatherHawk,2013-02-08 13:44:00,
2013-02-08 07:49:00,45.0,24.9,30.49,NW,325,2.0,0.0,45,0.00,,,0.00,74,WeatherHawk,2013-02-08 13:49:00,
2013-02-08 07:54:00,45.0,25.0,30.49,West,278,2.0,0.0,45,0.00,,,0.00,86,WeatherHawk,2013-02-08 13:54:00,
2013-02-08 07:59:00,45.1,24.5,30.48,NNW,341,5.0,0.0,44,0.00,,,0.00,97,WeatherHawk,2013-02-08 13:59:00,
2013-02-08 08:04:00,45.0,24.4,30.48,WNW,300,5.0,0.0,44,0.00,,,0.00,112,WeatherHawk,2013-02-08 14:04:00,
2013-02-08 08:09:00,45.1,24.5,30.48,WNW,287,3.0,0.0,44,0.00,,,0.00,123,WeatherHawk,2013-02-08 14:09:00,
2013-02-08 08:14:00,45.2,24.0,30.48,ENE,57,7.0,0.0,43,0.00,,,0.00,138,WeatherHawk,2013-02-08 14:14:00,
2013-02-08 08:20:00,45.3,23.6,30.49,NE,46,8.0,-999.0,42,0.00,,,0.00,148,WeatherHawk,2013-02-08 14:20:00,
2013-02-08 08:25:00,46.2,23.8,30.48,North,3,8.0,0.0,41,0.00,,,0.00,164,WeatherHawk,2013-02-08 14:25:00,
2013-02-08 08:30:00,48.0,25.4,30.48,ESE,107,2.0,-999.0,41,0.00,,,0.00,178,WeatherHawk,2013-02-08 14:30:00,
2013-02-08 08:35:00,46.7,23.0,30.49,NNW,336,7.0,0.0,39,0.00,,,0.00,193,WeatherHawk,2013-02-08 14:35:00,
2013-02-08 08:40:00,47.0,22.7,30.49,NW,316,4.0,-999.0,38,0.00,,,0.00,208,WeatherHawk,2013-02-08 14:40:00,
2013-02-08 08:45:00,47.6,22.0,30.48,NW,317,7.0,-999.0,36,0.00,,,0.00,223,WeatherHawk,2013-02-08 14:45:00,
2013-02-08 08:50:00,49.4,23.6,30.48,West,279,5.0,0.0,36,0.00,,,0.00,236,WeatherHawk,2013-02-08 14:50:00,
2013-02-08 08:55:00,48.4,21.3,30.48,WNW,300,2.0,0.0,34,0.00,,,0.00,250,WeatherHawk,2013-02-08 14:55:00,
2013-02-08 09:00:00,47.6,20.6,30.49,NW,320,8.0,0.0,34,0.00,,,0.00,266,WeatherHawk,2013-02-08 15:00:00,
2013-02-08 09:05:00,47.4,19.7,30.49,NNW,340,3.0,0.0,33,0.00,,,0.00,282,WeatherHawk,2013-02-08 15:05:00,
2013-02-08 09:10:00,47.9,19.5,30.48,NW,326,1.0,0.0,32,0.00,,,0.00,297,WeatherHawk,2013-02-08 15:10:00,
2013-02-08 09:15:00,48.2,18.2,30.49,NE,38,6.0,0.0,30,0.00,,,0.00,310,WeatherHawk,2013-02-08 15:15:00,
2013-02-08 09:20:00,48.2,17.4,30.49,NNW,328,6.0,0.0,29,0.00,,,0.00,326,WeatherHawk,2013-02-08 15:20:00,
2013-02-08 09:25:00,51.5,18.6,30.49,NNW,330,5.0,0.0,27,0.00,,,0.00,339,WeatherHawk,2013-02-08 15:25:00,
2013-02-08 09:30:00,49.2,17.5,30.48,NW,325,6.0,-999.0,28,0.00,,,0.00,358,WeatherHawk,2013-02-08 15:30:00,
2013-02-08 09:35:00,49.5,14.2,30.49,NNW,335,7.0,-999.0,24,0.00,,,0.00,373,WeatherHawk,2013-02-08 15:35:00,
2013-02-08 09:40:00,50.5,16.0,30.49,North,6,7.0,0.0,25,0.00,,,0.00,393,WeatherHawk,2013-02-08 15:40:00,
2013-02-08 09:45:00,52.5,16.8,30.48,WNW,294,5.0,0.0,24,0.00,,,0.00,407,WeatherHawk,2013-02-08 15:45:00,
2013-02-08 09:50:00,52.3,15.6,30.48,NNE,21,5.0,0.0,23,0.00,,,0.00,419,WeatherHawk,2013-02-08 15:50:00,
2013-02-08 09:55:00,52.9,15.1,30.47,NE,44,4.0,-999.0,22,0.00,,,0.00,430,WeatherHawk,2013-02-08 15:55:00,
2013-02-08 10:00:00,53.9,13.8,30.47,NNE,18,4.0,-999.0,20,0.00,,,0.00,444,WeatherHawk,2013-02-08 16:00:00,
2013-02-08 10:05:00,53.7,13.6,30.47,NW,308,6.0,0.0,20,0.00,,,0.00,455,WeatherHawk,2013-02-08 16:05:00,
2013-02-08 10:10:00,51.8,9.7,30.46,NNE,20,5.0,0.0,18,0.00,,,0.00,469,WeatherHawk,2013-02-08 16:10:00,
2013-02-08 10:15:00,53.4,13.4,30.47,NNE,31,5.0,0.0,20,0.00,,,0.00,482,WeatherHawk,2013-02-08 16:15:00,
2013-02-08 10:20:00,53.7,11.2,30.46,North,11,5.0,0.0,18,0.00,,,0.00,495,WeatherHawk,2013-02-08 16:20:00,
2013-02-08 10:25:00,54.2,9.0,30.46,NNE,19,5.0,0.0,16,0.00,,,0.00,508,WeatherHawk,2013-02-08 16:25:00,
2013-02-08 10:30:00,54.0,8.8,30.46,NE,39,7.0,0.0,16,0.00,,,0.00,520,WeatherHawk,2013-02-08 16:30:00,
2013-02-08 10:35:00,54.7,6.4,30.46,NE,35,7.0,-999.0,14,0.00,,,0.00,529,WeatherHawk,2013-02-08 16:35:00,
2013-02-08 10:40:00,55.7,5.6,30.45,North,2,7.0,0.0,13,0.00,,,0.00,542,WeatherHawk,2013-02-08 16:40:00,
2013-02-08 10:45:00,56.4,2.6,30.46,NE,36,2.0,0.0,11,0.00,,,0.00,552,WeatherHawk,2013-02-08 16:45:00,
2013-02-08 10:50:00,55.5,1.9,30.45,NNE,18,8.0,0.0,11,0.00,,,0.00,563,WeatherHawk,2013-02-08 16:50:00,
2013-02-08 10:55:00,55.1,-0.5,30.44,NNE,32,9.0,0.0,10,0.00,,,0.00,576,WeatherHawk,2013-02-08 16:55:00,
2013-02-08 11:00:00,56.9,0.9,30.44,NNE,19,9.0,0.0,10,0.00,,,0.00,587,WeatherHawk,2013-02-08 17:00:00,
2013-02-08 11:05:00,55.3,-0.3,30.43,North,11,10.0,0.0,10,0.00,,,0.00,595,WeatherHawk,2013-02-08 17:05:00,
2013-02-08 11:10:00,55.5,-0.1,30.43,NE,35,12.0,0.0,10,0.00,,,0.00,604,WeatherHawk,2013-02-08 17:10:00,
2013-02-08 11:15:00,57.6,-6.0,30.43,NW,321,7.0,0.0,7,0.00,,,0.00,609,WeatherHawk,2013-02-08 17:15:00,
2013-02-08 11:20:00,57.8,-3.1,30.43,NNE,27,7.0,0.0,8,0.00,,,0.00,623,WeatherHawk,2013-02-08 17:20:00,
2013-02-08 11:25:00,56.4,-4.2,30.43,North,3,8.0,-999.0,8,0.00,,,0.00,632,WeatherHawk,2013-02-08 17:25:00,
2013-02-08 11:30:00,58.7,2.3,30.43,NE,43,4.0,-999.0,10,0.00,,,0.00,642,WeatherHawk,2013-02-08 17:30:00,
2013-02-08 11:35:00,58.5,-2.6,30.44,NNW,342,7.0,-999.0,8,0.00,,,0.00,653,WeatherHawk,2013-02-08 17:35:00,
2013-02-08 11:40:00,61.0,1.8,30.43,North,4,4.0,0.0,9,0.00,,,0.00,667,WeatherHawk,2013-02-08 17:40:00,
2013-02-08 11:45:00,59.2,-8.0,30.42,SE,145,7.0,0.0,6,0.00,,,0.00,676,WeatherHawk,2013-02-08 17:45:00,
2013-02-08 11:50:00,58.3,-5.5,30.42,ENE,69,5.0,0.0,7,0.00,,,0.00,694,WeatherHawk,2013-02-08 17:50:00,
2013-02-08 11:55:00,59.6,-4.5,30.42,NNE,29,8.0,0.0,7,0.00,,,0.00,688,WeatherHawk,2013-02-08 17:55:00,
2013-02-08 12:00:00,59.5,-1.8,30.42,NE,44,10.0,0.0,8,0.00,,,0.00,683,WeatherHawk,2013-02-08 18:00:00,
2013-02-08 12:05:00,57.8,-5.9,30.42,NNE,24,12.0,0.0,7,0.00,,,0.00,679,WeatherHawk,2013-02-08 18:05:00,
2013-02-08 12:11:00,59.4,-4.7,30.42,NNE,14,7.0,0.0,7,0.00,,,0.00,685,WeatherHawk,2013-02-08 18:11:00,
2013-02-08 12:17:00,58.3,-2.7,30.41,NNE,14,11.0,0.0,8,0.00,,,0.00,687,WeatherHawk,2013-02-08 18:17:00,
2013-02-08 12:22:00,58.7,-2.4,30.42,NE,53,8.0,0.0,8,0.00,,,0.00,692,WeatherHawk,2013-02-08 18:22:00,
2013-02-08 12:28:00,59.5,-1.9,30.41,NNE,12,7.0,0.0,8,0.00,,,0.00,678,WeatherHawk,2013-02-08 18:28:00,
2013-02-08 12:33:00,60.6,-1.0,30.41,NE,50,6.0,0.0,8,0.00,,,0.00,664,WeatherHawk,2013-02-08 18:33:00,
2013-02-08 12:38:00,61.1,1.9,30.40,SW,224,4.0,0.0,9,0.00,,,0.00,697,WeatherHawk,2013-02-08 18:38:00,
2013-02-08 12:43:00,60.3,-1.2,30.39,SW,228,6.0,0.0,8,0.00,,,0.00,700,WeatherHawk,2013-02-08 18:43:00,
2013-02-08 12:49:00,61.2,2.0,30.38,NNW,347,7.0,0.0,9,0.00,,,0.00,694,WeatherHawk,2013-02-08 18:49:00,
2013-02-08 12:54:00,59.4,0.6,30.39,NNE,16,7.0,0.0,9,0.00,,,0.00,671,WeatherHawk,2013-02-08 18:54:00,
2013-02-08 12:59:00,61.8,2.4,30.38,NNE,26,6.0,0.0,9,0.00,,,0.00,718,WeatherHawk,2013-02-08 18:59:00,
2013-02-08 13:04:00,63.0,3.3,30.38,West,268,3.0,0.0,9,0.00,,,0.00,701,WeatherHawk,2013-02-08 19:04:00,
2013-02-08 13:09:00,63.5,3.7,30.37,East,95,4.0,0.0,9,0.00,,,0.00,702,WeatherHawk,2013-02-08 19:09:00,
2013-02-08 13:14:00,63.3,1.0,30.37,WSW,237,6.0,0.0,8,0.00,,,0.00,683,WeatherHawk,2013-02-08 19:14:00,
2013-02-08 13:19:00,60.6,-1.0,30.36,NNE,28,15.0,0.0,8,0.00,,,0.00,669,WeatherHawk,2013-02-08 19:19:00,
2013-02-08 13:25:00,61.4,2.1,30.36,North,11,8.0,0.0,9,0.00,,,0.00,694,WeatherHawk,2013-02-08 19:25:00,
2013-02-08 13:30:00,62.9,3.2,30.36,East,94,6.0,0.0,9,0.00,,,0.00,683,WeatherHawk,2013-02-08 19:30:00,
2013-02-08 13:35:00,62.8,3.1,30.36,West,281,5.0,0.0,9,0.00,,,0.00,685,WeatherHawk,2013-02-08 19:35:00,
2013-02-08 13:40:00,60.9,-10.5,30.36,NE,51,5.0,0.0,5,0.00,,,0.00,640,WeatherHawk,2013-02-08 19:40:00,
2013-02-08 13:45:00,63.1,0.8,30.37,NE,51,2.0,-999.0,8,0.00,,,0.00,657,WeatherHawk,2013-02-08 19:45:00,
2013-02-08 13:50:00,62.9,3.2,30.36,ENE,67,4.0,-999.0,9,0.00,,,0.00,676,WeatherHawk,2013-02-08 19:50:00,
2013-02-08 13:55:00,63.6,3.8,30.35,WNW,295,6.0,0.0,9,0.00,,,0.00,621,WeatherHawk,2013-02-08 19:55:00,
2013-02-08 14:00:00,61.1,1.9,30.35,NE,43,5.0,0.0,9,0.00,,,0.00,660,WeatherHawk,2013-02-08 20:00:00,
2013-02-08 14:05:00,63.5,1.1,30.34,NNE,21,4.0,-999.0,8,0.00,,,0.00,640,WeatherHawk,2013-02-08 20:05:00,
2013-02-08 14:10:00,65.3,5.0,30.35,NW,317,2.0,0.0,9,0.00,,,0.00,644,WeatherHawk,2013-02-08 20:10:00,
2013-02-08 14:15:00,63.1,0.8,30.34,SE,139,1.0,0.0,8,0.00,,,0.00,625,WeatherHawk,2013-02-08 20:15:00,
2013-02-08 14:20:00,62.9,0.7,30.33,NE,53,7.0,0.0,8,0.00,,,0.00,599,WeatherHawk,2013-02-08 20:20:00,
2013-02-08 14:25:00,62.6,0.5,30.33,NNE,12,5.0,0.0,8,0.00,,,0.00,543,WeatherHawk,2013-02-08 20:25:00,
2013-02-08 14:30:00,62.2,0.2,30.34,ENE,73,2.0,0.0,8,0.00,,,0.00,586,WeatherHawk,2013-02-08 20:30:00,
2013-02-08 14:35:00,62.5,2.9,30.33,NE,55,5.0,0.0,9,0.00,,,0.00,509,WeatherHawk,2013-02-08 20:35:00,
2013-02-08 14:40:00,62.0,2.5,30.35,NNE,24,5.0,0.0,9,0.00,,,0.00,508,WeatherHawk,2013-02-08 20:40:00,
2013-02-08 14:45:00,64.4,4.4,30.34,NE,46,1.0,0.0,9,0.00,,,0.00,573,WeatherHawk,2013-02-08 20:45:00,
2013-02-08 14:51:00,62.4,2.9,30.34,ESE,118,2.0,0.0,9,0.00,,,0.00,525,WeatherHawk,2013-02-08 20:51:00,
2013-02-08 14:56:00,64.9,4.7,30.34,ENE,71,0.0,0.0,9,0.00,,,0.00,543,WeatherHawk,2013-02-08 20:56:00,
2013-02-08 15:01:00,65.8,-7.0,30.34,WSW,243,1.0,0.0,5,0.00,,,0.00,560,WeatherHawk,2013-02-08 21:01:00,
2013-02-08 15:06:00,62.5,-9.3,30.33,NNW,343,5.0,0.0,5,0.00,,,0.00,535,WeatherHawk,2013-02-08 21:06:00,
2013-02-08 15:11:00,65.8,-7.0,30.34,NNE,29,0.0,0.0,5,0.00,,,0.00,514,WeatherHawk,2013-02-08 21:11:00,
2013-02-08 15:17:00,64.5,-7.9,30.34,East,87,4.0,0.0,5,0.00,,,0.00,510,WeatherHawk,2013-02-08 21:17:00,
2013-02-08 15:22:00,65.9,-6.9,30.32,SE,136,0.0,0.0,5,0.00,,,0.00,485,WeatherHawk,2013-02-08 21:22:00,
2013-02-08 15:27:00,67.3,-5.9,30.32,SSE,154,0.0,0.0,5,0.00,,,0.00,485,WeatherHawk,2013-02-08 21:27:00,
2013-02-08 15:32:00,64.2,-8.1,30.32,South,176,1.0,0.0,5,0.00,,,0.00,473,WeatherHawk,2013-02-08 21:32:00,
2013-02-08 15:38:00,64.1,4.1,30.33,ENE,57,3.0,0.0,9,0.00,,,0.00,456,WeatherHawk,2013-02-08 21:38:00,
2013-02-08 15:43:00,64.2,-8.1,30.33,NW,323,3.0,0.0,5,0.00,,,0.00,442,WeatherHawk,2013-02-08 21:43:00,
2013-02-08 15:48:00,63.3,3.5,30.32,NNE,23,0.0,0.0,9,0.00,,,0.00,423,WeatherHawk,2013-02-08 21:48:00,
2013-02-08 15:53:00,64.1,4.2,30.33,NE,46,3.0,0.0,9,0.00,,,0.00,411,WeatherHawk,2013-02-08 21:53:00,
2013-02-08 15:58:00,63.7,-8.4,30.32,NNW,344,4.0,0.0,5,0.00,,,0.00,399,WeatherHawk,2013-02-08 21:58:00,
2013-02-08 16:04:00,63.3,-8.7,30.33,North,3,0.0,0.0,5,0.00,,,0.00,384,WeatherHawk,2013-02-08 22:04:00,
2013-02-08 16:09:00,64.3,-8.0,30.33,SSW,195,4.0,0.0,5,0.00,,,0.00,368,WeatherHawk,2013-02-08 22:09:00,
2013-02-08 16:14:00,63.9,-8.3,30.33,SE,140,2.0,0.0,5,0.00,,,0.00,355,WeatherHawk,2013-02-08 22:14:00,
2013-02-08 16:20:00,63.4,-8.7,30.32,East,86,4.0,0.0,5,0.00,,,0.00,342,WeatherHawk,2013-02-08 22:20:00,
2013-02-08 16:25:00,63.4,-8.7,30.32,SSE,159,5.0,-999.0,5,0.00,,,0.00,270,WeatherHawk,2013-02-08 22:25:00,
2013-02-08 16:30:00,62.3,-9.5,30.32,NNE,27,0.0,0.0,5,0.00,,,0.00,307,WeatherHawk,2013-02-08 22:30:00,
2013-02-08 16:35:00,62.8,3.2,30.32,North,6,4.0,-999.0,9,0.00,,,0.00,247,WeatherHawk,2013-02-08 22:35:00,
2013-02-08 16:40:00,63.1,3.4,30.32,SSW,194,3.0,0.0,9,0.00,,,0.00,219,WeatherHawk,2013-02-08 22:40:00,
2013-02-08 16:45:00,64.0,1.6,30.32,WNW,300,2.0,-999.0,8,0.00,,,0.00,229,WeatherHawk,2013-02-08 22:45:00,
2013-02-08 16:50:00,63.6,1.3,30.33,South,188,0.0,0.0,8,0.00,,,0.00,218,WeatherHawk,2013-02-08 22:50:00,
2013-02-08 16:55:00,62.8,0.7,30.32,NNE,29,2.0,0.0,8,0.00,,,0.00,217,WeatherHawk,2013-02-08 22:55:00,
2013-02-08 17:00:00,62.4,0.3,30.33,NNE,23,8.0,-999.0,8,0.00,,,0.00,197,WeatherHawk,2013-02-08 23:00:00,
2013-02-08 17:05:00,62.5,0.4,30.32,SSW,196,1.0,0.0,8,0.00,,,0.00,117,WeatherHawk,2013-02-08 23:05:00,
2013-02-08 17:10:00,62.2,-2.6,30.33,WSW,250,1.0,0.0,7,0.00,,,0.00,101,WeatherHawk,2013-02-08 23:10:00,
2013-02-08 17:15:00,62.0,-2.8,30.33,NNE,31,0.0,0.0,7,0.00,,,0.00,84,WeatherHawk,2013-02-08 23:15:00,
2013-02-08 17:20:00,61.7,-6.2,30.33,East,89,0.0,0.0,6,0.00,,,0.00,94,WeatherHawk,2013-02-08 23:20:00,
2013-02-08 17:25:00,61.5,-6.3,30.33,NNE,29,5.0,0.0,6,0.00,,,0.00,79,WeatherHawk,2013-02-08 23:25:00,
2013-02-08 17:30:00,61.8,-6.1,30.34,SE,136,1.0,-999.0,6,0.00,,,0.00,67,WeatherHawk,2013-02-08 23:30:00,
2013-02-08 17:35:00,61.9,-0.1,30.34,ESE,112,6.0,-999.0,8,0.00,,,0.00,55,WeatherHawk,2013-02-08 23:35:00,
2013-02-08 17:40:00,61.6,2.2,30.34,WNW,283,1.0,-999.0,9,0.00,,,0.00,47,WeatherHawk,2013-02-08 23:40:00,
2013-02-08 17:45:00,61.0,-0.7,30.34,SSW,209,4.0,-999.0,8,0.00,,,0.00,41,WeatherHawk,2013-02-08 23:45:00,
2013-02-08 17:50:00,60.9,-0.8,30.35,WNW,287,3.0,0.0,8,0.00,,,0.00,31,WeatherHawk,2013-02-08 23:50:00,
2013-02-08 17:55:00,60.7,-0.9,30.34,SSE,160,4.0,0.0,8,0.00,,,0.00,22,WeatherHawk,2013-02-08 23:55:00,
2013-02-08 18:00:00,60.5,-7.0,30.34,ESE,112,3.0,0.0,6,0.00,,,0.00,24,WeatherHawk,2013-02-09 00:00:00,
2013-02-08 18:05:00,60.6,-3.8,30.35,ENE,63,4.0,0.0,7,0.00,,,0.00,7,WeatherHawk,2013-02-09 00:05:00,
2013-02-08 18:10:00,60.0,-4.3,30.34,NNE,29,3.0,0.0,7,0.00,,,0.00,6,WeatherHawk,2013-02-09 00:10:00,
2013-02-08 18:15:00,59.8,0.9,30.34,South,185,2.0,0.0,9,0.00,,,0.00,5,WeatherHawk,2013-02-09 00:15:00,
2013-02-08 18:20:00,59.3,-4.7,30.34,ENE,65,5.0,0.0,7,0.00,,,0.00,1,WeatherHawk,2013-02-09 00:20:00,
2013-02-08 18:25:00,58.9,2.5,30.34,ESE,102,1.0,0.0,10,0.00,,,0.00,1,WeatherHawk,2013-02-09 00:25:00,
2013-02-08 18:30:00,59.0,0.3,30.34,ENE,66,3.0,0.0,9,0.00,,,0.00,2,WeatherHawk,2013-02-09 00:30:00,
2013-02-08 18:35:00,59.1,-2.1,30.34,NE,50,0.0,-999.0,8,0.00,,,0.00,0,WeatherHawk,2013-02-09 00:35:00,
2013-02-08 18:40:00,58.9,-2.3,30.34,NNW,339,2.0,0.0,8,0.00,,,0.00,0,WeatherHawk,2013-02-09 00:40:00,
2013-02-08 18:45:00,58.9,0.2,30.34,West,278,3.0,0.0,9,0.00,,,0.00,1,WeatherHawk,2013-02-09 00:45:00,
2013-02-08 18:50:00,58.8,2.4,30.35,ENE,77,4.0,0.0,10,0.00,,,0.00,0,WeatherHawk,2013-02-09 00:50:00,
2013-02-08 18:55:00,59.0,-2.2,30.35,East,99,1.0,0.0,8,0.00,,,0.00,1,WeatherHawk,2013-02-09 00:55:00,
2013-02-08 19:00:00,58.2,-2.8,30.34,ESE,107,1.0,0.0,8,0.00,,,0.00,1,WeatherHawk,2013-02-09 01:00:00,
2013-02-08 19:05:00,58.3,2.0,30.34,ENE,70,1.0,0.0,10,0.00,,,0.00,1,WeatherHawk,2013-02-09 01:05:00,
2013-02-08 19:10:00,58.4,4.1,30.34,ENE,60,0.0,-999.0,11,0.00,,,0.00,0,WeatherHawk,2013-02-09 01:10:00,
2013-02-08 19:15:00,58.6,2.2,30.35,NNE,20,1.0,0.0,10,0.00,,,0.00,1,WeatherHawk,2013-02-09 01:15:00,
2013-02-08 19:20:00,57.9,-0.6,30.35,SSW,205,0.0,-999.0,9,0.00,,,0.00,0,WeatherHawk,2013-02-09 01:20:00,
2013-02-08 19:25:00,57.5,3.4,30.35,SSE,150,0.0,0.0,11,0.00,,,0.00,1,WeatherHawk,2013-02-09 01:25:00,
2013-02-08 19:30:00,57.8,7.3,30.36,ENE,63,0.0,0.0,13,0.00,,,0.00,0,WeatherHawk,2013-02-09 01:30:00,
2013-02-08 19:35:00,57.7,3.6,30.36,SSE,152,0.0,0.0,11,0.00,,,0.00,0,WeatherHawk,2013-02-09 01:35:00,
2013-02-08 19:40:00,57.8,5.6,30.36,ENE,72,0.0,-999.0,12,0.00,,,0.00,0,WeatherHawk,2013-02-09 01:40:00,
2013-02-08 19:45:00,58.6,6.1,30.36,East,97,0.0,0.0,12,0.00,,,0.00,1,WeatherHawk,2013-02-09 01:45:00,
2013-02-08 19:50:00,57.8,7.3,30.36,East,89,0.0,0.0,13,0.00,,,0.00,0,WeatherHawk,2013-02-09 01:50:00,
2013-02-08 19:55:00,58.4,9.4,30.36,SE,131,0.0,0.0,14,0.00,,,0.00,1,WeatherHawk,2013-02-09 01:55:00,
2013-02-08 20:00:00,57.7,8.8,30.36,ESE,114,0.0,-999.0,14,0.00,,,0.00,0,WeatherHawk,2013-02-09 02:00:00,
2013-02-08 20:05:00,57.4,10.1,30.36,ESE,112,0.0,-999.0,15,0.00,,,0.00,0,WeatherHawk,2013-02-09 02:05:00,
2013-02-08 20:10:00,57.8,7.3,30.37,ESE,110,0.0,0.0,13,0.00,,,0.00,0,WeatherHawk,2013-02-09 02:10:00,
2013-02-08 20:15:00,56.0,10.4,30.36,East,96,0.0,0.0,16,0.00,,,0.00,0,WeatherHawk,2013-02-09 02:15:00,
2013-02-08 20:20:00,57.1,8.4,30.37,ESE,118,0.0,0.0,14,0.00,,,0.00,0,WeatherHawk,2013-02-09 02:20:00,
2013-02-08 20:25:00,56.8,12.5,30.37,ESE,118,0.0,0.0,17,0.00,,,0.00,1,WeatherHawk,2013-02-09 02:25:00,
2013-02-08 20:30:00,56.0,11.9,30.37,SE,134,0.0,0.0,17,0.00,,,0.00,0,WeatherHawk,2013-02-09 02:30:00,
2013-02-08 20:35:00,55.9,8.9,30.37,ESE,118,0.0,0.0,15,0.00,,,0.00,0,WeatherHawk,2013-02-09 02:35:00,
2013-02-08 20:40:00,54.3,12.9,30.36,East,98,0.0,0.0,19,0.00,,,0.00,0,WeatherHawk,2013-02-09 02:40:00,
2013-02-08 20:45:00,54.7,12.1,30.37,ENE,66,0.0,0.0,18,0.00,,,0.00,0,WeatherHawk,2013-02-09 02:45:00,
2013-02-08 20:50:00,54.2,12.8,30.37,ENE,62,0.0,0.0,19,0.00,,,0.00,2,WeatherHawk,2013-02-09 02:50:00,
2013-02-08 20:55:00,54.6,11.9,30.37,ENE,71,0.0,-999.0,18,0.00,,,0.00,0,WeatherHawk,2013-02-09 02:55:00,
2013-02-08 21:00:00,55.6,16.3,30.36,ENE,71,0.0,0.0,21,0.00,,,0.00,0,WeatherHawk,2013-02-09 03:00:00,
2013-02-08 21:05:00,54.9,14.6,30.37,ENE,74,0.0,0.0,20,0.00,,,0.00,0,WeatherHawk,2013-02-09 03:05:00,
2013-02-08 21:10:00,54.5,15.3,30.37,ENE,78,0.0,0.0,21,0.00,,,0.00,0,WeatherHawk,2013-02-09 03:10:00,
2013-02-08 21:15:00,55.3,17.1,30.37,East,79,0.0,-999.0,22,0.00,,,0.00,0,WeatherHawk,2013-02-09 03:15:00,
2013-02-08 21:20:00,55.6,16.3,30.36,East,79,0.0,0.0,21,0.00,,,0.00,0,WeatherHawk,2013-02-09 03:20:00,
2013-02-08 21:25:00,53.2,14.3,30.37,East,79,0.0,0.0,21,0.00,,,0.00,1,WeatherHawk,2013-02-09 03:25:00,
2013-02-08 21:30:00,55.3,16.1,30.37,ENE,77,0.0,0.0,21,0.00,,,0.00,1,WeatherHawk,2013-02-09 03:30:00,
2013-02-08 21:35:00,54.9,15.7,30.37,ESE,119,0.0,0.0,21,0.00,,,0.00,1,WeatherHawk,2013-02-09 03:35:00,
2013-02-08 21:40:00,51.5,13.9,30.37,ESE,119,0.0,0.0,22,0.00,,,0.00,1,WeatherHawk,2013-02-09 03:40:00,
2013-02-08 21:45:00,52.1,20.9,30.38,ESE,119,0.0,0.0,29,0.00,,,0.00,0,WeatherHawk,2013-02-09 03:45:00,
2013-02-08 21:50:00,51.5,21.1,30.38,ESE,119,0.0,-999.0,30,0.00,,,0.00,0,WeatherHawk,2013-02-09 03:50:00,
2013-02-08 21:55:00,54.1,21.7,30.38,ESE,119,0.0,0.0,28,0.00,,,0.00,1,WeatherHawk,2013-02-09 03:55:00,
2013-02-08 22:00:00,51.8,21.4,30.39,ESE,119,0.0,0.0,30,0.00,,,0.00,0,WeatherHawk,2013-02-09 04:00:00,
2013-02-08 22:05:00,51.2,21.7,30.38,ESE,119,0.0,0.0,31,0.00,,,0.00,0,WeatherHawk,2013-02-09 04:05:00,
2013-02-08 22:10:00,50.9,22.9,30.38,ESE,119,0.0,0.0,33,0.00,,,0.00,0,WeatherHawk,2013-02-09 04:10:00,
2013-02-08 22:15:00,54.2,23.4,30.39,ESE,119,0.0,-999.0,30,0.00,,,0.00,0,WeatherHawk,2013-02-09 04:15:00,
2013-02-08 22:20:00,50.3,19.2,30.38,SE,133,0.0,0.0,29,0.00,,,0.00,0,WeatherHawk,2013-02-09 04:20:00,
2013-02-08 22:25:00,52.1,21.6,30.38,East,89,0.0,0.0,30,0.00,,,0.00,0,WeatherHawk,2013-02-09 04:25:00,
2013-02-08 22:30:00,53.1,20.9,30.37,East,89,0.0,-999.0,28,0.00,,,0.00,0,WeatherHawk,2013-02-09 04:30:00,
2013-02-08 22:35:00,53.0,20.7,30.38,SE,137,2.0,0.0,28,0.00,,,0.00,0,WeatherHawk,2013-02-09 04:35:00,
2013-02-08 22:40:00,52.2,20.1,30.37,ESE,118,2.0,-999.0,28,0.00,,,0.00,1,WeatherHawk,2013-02-09 04:40:00,
2013-02-08 22:45:00,52.5,20.3,30.37,SE,131,2.0,0.0,28,0.00,,,0.00,0,WeatherHawk,2013-02-09 04:45:00,
2013-02-08 22:50:00,52.7,20.5,30.36,ESE,120,5.0,0.0,28,0.00,,,0.00,1,WeatherHawk,2013-02-09 04:50:00,
2013-02-08 22:55:00,52.9,19.8,30.36,ESE,114,5.0,0.0,27,0.00,,,0.00,0,WeatherHawk,2013-02-09 04:55:00,
2013-02-08 23:00:00,52.8,19.7,30.36,ESE,121,2.0,-999.0,27,0.00,,,0.00,0,WeatherHawk,2013-02-09 05:00:00,
2013-02-08 23:03:00,52.0,19.1,30.36,SE,139,1.0,0.0,27,0.00,,,0.00,1,WeatherHawk,2013-02-09 05:03:00,
2013-02-08 23:08:00,52.5,19.5,30.36,South,173,3.0,0.0,27,0.00,,,0.00,0,WeatherHawk,2013-02-09 05:08:00,
2013-02-08 23:13:00,52.6,18.7,30.36,ESE,119,2.0,0.0,26,0.00,,,0.00,0,WeatherHawk,2013-02-09 05:13:00,
2013-02-08 23:18:00,52.4,18.6,30.36,SE,144,2.0,0.0,26,0.00,,,0.00,0,WeatherHawk,2013-02-09 05:18:00,
2013-02-08 23:23:00,52.4,19.4,30.37,SE,129,4.0,0.0,27,0.00,,,0.00,0,WeatherHawk,2013-02-09 05:23:00,
2013-02-08 23:29:00,52.5,19.5,30.36,ESE,116,5.0,0.0,27,0.00,,,0.00,0,WeatherHawk,2013-02-09 05:29:00,
2013-02-08 23:34:00,52.2,20.1,30.36,SE,125,3.0,0.0,28,0.00,,,0.00,1,WeatherHawk,2013-02-09 05:34:00,
2013-02-08 23:39:00,52.2,20.1,30.35,SE,131,5.0,0.0,28,0.00,,,0.00,0,WeatherHawk,2013-02-09 05:39:00,
2013-02-08 23:44:00,52.0,19.9,30.37,SE,141,4.0,0.0,28,0.00,,,0.00,1,WeatherHawk,2013-02-09 05:44:00,
2013-02-08 23:50:00,52.1,20.0,30.38,ESE,121,2.0,0.0,28,0.00,,,0.00,0,WeatherHawk,2013-02-09 05:50:00,
2013-02-08 23:55:00,51.5,20.3,30.37,ESE,116,1.0,0.0,29,0.00,,,0.00,0,WeatherHawk,2013-02-09 05:55:00,